Weather History for Fort Polk, LA

Change the Weather History Date:

Thursday, February 7, 2013

  Actual Average (KPOE) Record (KPOE)
Temperature  
Mean Temperature 57 °F -  
Max Temperature 63 °F 59 °F 78 °F (1999)
Min Temperature 51 °F 41 °F 28 °F (2014)
Degree Days  
Heating Degree Days 8    
Growing Degree Days 7 (Base 50)    
Moisture  
Dew Point 54 °F    
Average Humidity 90    
Maximum Humidity 100    
Minimum Humidity 75    
Precipitation  
Precipitation 0.00 in - - ()
Sea Level Pressure  
Sea Level Pressure 29.93 in    
Wind  
Wind Speed 0 mph (WSW)    
Max Wind Speed 4 mph    
Max Gust Speed -    
Visibility 6 miles    
Events Fog    
Averages and records for this station are not official NWS values.
T = Trace of Precipitation, MM = Missing Value Source: NWS Daily Summary

Daily Weather History Graph

Daily Weather History Graph

Search for Another Location

Airport:

Trip Planner

Search our weather history database for the weather conditions in past years. The results will help you decide how hot, cold, wet, or windy it might be!

Date:

Astronomy

Feb. 07, 2013 Rise Set
Actual Time 7:01 AM CST 5:53 PM CST
Civil Twilight 6:36 AM CST 6:18 PM CST
Nautical Twilight 6:07 AM CST 6:47 PM CST
Astronomical Twilight 5:38 AM CST 7:16 PM CST
Moon 4:35 AM CST (2/7) 3:23 PM CST (2/7)
Length of Visible Light 11h 42m
Length of Day
10h 52m
Waning Crescent, 9% of the Moon is Illuminated
Feb 7
Waning Crescent
Feb 10
New
Feb 17
First Quarter
Feb 25
Full
Mar 4
Last Quarter

Hourly Weather History & Observations

Time (CST) Temp. Dew Point Humidity Pressure Visibility Wind Dir Wind Speed Gust Speed Precip Events Conditions
12:21 AM 57.2 °F 55.4 °F 94% 29.93 in 10.0 mi Calm Calm - N/A   Scattered Clouds
12:48 AM 55.4 °F 53.6 °F 94% 29.93 in 1.8 mi Calm Calm - N/A   Clear
12:56 AM 55.0 °F 53.1 °F 93% 29.93 in 0.5 mi Calm Calm - N/A Fog Fog
1:05 AM 55.4 °F 51.8 °F 88% 29.93 in 0.5 mi Calm Calm - N/A Fog Fog
1:56 AM 53.1 °F 51.1 °F 93% 29.93 in 0.5 mi Calm Calm - N/A Fog Fog
2:17 AM 51.8 °F 51.8 °F 100% 29.92 in 1.0 mi Calm Calm - N/A   Mist
2:23 AM 51.8 °F 50.0 °F 94% 29.92 in 0.8 mi Calm Calm - N/A   Mostly Cloudy
2:34 AM 53.6 °F 51.8 °F 94% 29.92 in 1.8 mi Calm Calm - N/A   Mostly Cloudy
2:41 AM 53.6 °F 51.8 °F 94% 29.92 in 2.5 mi Calm Calm - N/A   Overcast
2:51 AM 55.4 °F 53.6 °F 94% 29.91 in 4.0 mi Calm Calm - N/A   Overcast
2:56 AM 54.0 °F 53.1 °F 97% 29.91 in 4.0 mi Calm Calm - N/A   Overcast
3:56 AM 55.0 °F 54.0 °F 96% 29.90 in 4.0 mi Calm Calm - N/A   Overcast
4:56 AM 55.0 °F 54.0 °F 96% 29.89 in 3.0 mi Calm Calm - N/A   Overcast
5:03 AM 55.4 °F 53.6 °F 94% 29.89 in 2.5 mi Calm Calm - N/A   Overcast
5:24 AM 55.4 °F 53.6 °F 94% 29.89 in 5.0 mi Calm Calm - N/A   Overcast
5:56 AM 55.9 °F 54.0 °F 93% 29.90 in 5.0 mi Calm Calm - N/A   Overcast
6:56 AM 55.9 °F 54.0 °F 93% 29.92 in 3.0 mi Calm Calm - N/A   Overcast
7:56 AM 57.0 °F 55.0 °F 93% 29.94 in 5.0 mi Calm Calm - N/A   Overcast
8:56 AM 59.0 °F 55.9 °F 90% 29.95 in 10.0 mi Calm Calm - N/A   Overcast
9:56 AM 60.1 °F 55.0 °F 83% 29.96 in 10.0 mi Calm Calm - N/A   Overcast
10:56 AM 61.0 °F 55.0 °F 81% 29.98 in 10.0 mi Calm Calm - N/A   Overcast
11:56 AM 61.0 °F 55.0 °F 81% 29.97 in 10.0 mi WNW 3.5 mph - N/A   Overcast
12:56 PM 62.1 °F 54.0 °F 75% 29.94 in 10.0 mi Calm Calm - N/A   Overcast
1:30 PM 62.6 °F 55.4 °F 77% 29.93 in 10.0 mi Calm Calm - N/A   Overcast
1:56 PM 62.1 °F 55.0 °F 78% 29.93 in 10.0 mi WSW 3.5 mph - N/A   Overcast
2:56 PM 63.0 °F 55.0 °F 75% 29.91 in 10.0 mi South 3.5 mph - N/A   Overcast
3:56 PM 63.0 °F 55.9 °F 78% 29.90 in 10.0 mi Calm Calm - N/A   Overcast
4:56 PM 63.0 °F 55.9 °F 78% 29.91 in 10.0 mi Calm Calm - N/A   Overcast
5:07 PM 62.6 °F 55.4 °F 77% 29.91 in 10.0 mi Calm Calm - N/A   Overcast
5:56 PM 61.0 °F 55.9 °F 83% 29.93 in 10.0 mi Calm Calm - N/A   Overcast
6:56 PM 60.1 °F 57.0 °F 90% 29.93 in 9.0 mi Calm Calm - N/A   Overcast
7:10 PM 60.8 °F 57.2 °F 88% 29.92 in 10.0 mi Calm Calm - N/A   Overcast
7:56 PM 60.1 °F 57.0 °F 90% 29.92 in 10.0 mi Calm Calm - N/A   Overcast
8:43 PM 57.2 °F 55.4 °F 94% 29.92 in 8.0 mi Calm Calm - N/A   Scattered Clouds
8:56 PM 57.0 °F 55.0 °F 93% 29.92 in 4.0 mi Calm Calm - N/A   Clear
9:04 PM 55.4 °F 53.6 °F 94% 29.92 in 2.0 mi Calm Calm - N/A   Clear
9:14 PM 55.4 °F 53.6 °F 94% 29.92 in 4.0 mi Calm Calm - N/A   Clear
9:28 PM 55.4 °F 53.6 °F 94% 29.93 in 2.5 mi Calm Calm - N/A   Clear
9:36 PM 55.4 °F 53.6 °F 94% 29.93 in 3.0 mi Calm Calm - N/A   Clear
9:44 PM 55.4 °F 53.6 °F 94% 29.93 in 2.5 mi Calm Calm - N/A   Clear
9:56 PM 55.0 °F 54.0 °F 96% 29.94 in 2.0 mi Calm Calm - N/A   Scattered Clouds
10:03 PM 55.4 °F 53.6 °F 94% 29.95 in 2.5 mi Calm Calm - N/A   Mostly Cloudy
10:11 PM 57.2 °F 55.4 °F 94% 29.95 in 5.0 mi Calm Calm - N/A   Mostly Cloudy
10:56 PM 57.0 °F 55.0 °F 93% 29.96 in 6.0 mi Calm Calm - N/A   Overcast
11:56 PM 57.9 °F 55.9 °F 93% 29.96 in 5.0 mi Calm Calm - N/A   Overcast